Lone Rock, WI

3:05 PM CST on December 02, 2016 (GMT -0600)
Tri-County Regional

Weather History for KLNR - April, 2013

Change the Weather History Date:

Saturday, April 13, 2013

  Actual Average Record
Temperature  
Mean Temperature 36 °F -  
Max Temperature 39 °F 54 °F 77 °F (2006)
Min Temperature 32 °F 34 °F 17 °F (1997)
Degree Days  
Heating Degree Days 30    
Moisture  
Dew Point 26 °F    
Average Humidity 71    
Maximum Humidity 88    
Minimum Humidity 57    
Precipitation  
Precipitation 0.00 in - - ()
Sea Level Pressure  
Sea Level Pressure 29.89 in    
Wind  
Wind Speed 11 mph (West)    
Max Wind Speed 20 mph    
Max Gust Speed 28 mph    
Visibility 10 miles    
Events Snow    
Averages and records for this station are not official NWS values.
T = Trace of Precipitation, MM = Missing Value Source: NWS Daily Summary

Daily Weather History Graph

Daily Weather History Graph

Search for Another Location

Airport or City:

Trip Planner

Search our weather history database for the weather conditions in past years. The results will help you decide how hot, cold, wet, or windy it might be!

Date:

Astronomy

Apr. 13, 2013 Rise Set
Actual Time 6:21 AM CDT 7:41 PM CDT
Civil Twilight 5:52 AM CDT 8:11 PM CDT
Nautical Twilight 5:16 AM CDT 8:46 PM CDT
Astronomical Twilight 4:39 AM CDT 9:24 PM CDT
Moon 8:08 AM CDT (4/13) 11:10 PM CDT (4/13)
Length of Visible Light 14h 19m
Length of Day
13h 20m
Waxing Crescent, 10% of the Moon is Illuminated
Apr 13
Waxing Crescent
Apr 18
First Quarter
Apr 25
Full
May 2
Last Quarter
May 9
New

Hourly Weather History & Observations

Time (CDT) Temp. Windchill Dew Point Humidity Pressure Visibility Wind Dir Wind Speed Gust Speed Precip Events Conditions
12:56 AM 35.1 °F 27.9 °F 28.0 °F 76% 29.81 in 10.0 mi West 9.2 mph - N/A   Overcast
1:56 AM 35.1 °F 27.4 °F 28.9 °F 78% 29.82 in 10.0 mi WSW 10.4 mph - N/A   Overcast
2:56 AM 34.0 °F 25.0 °F 28.0 °F 79% 29.81 in 10.0 mi WSW 12.7 mph - N/A   Overcast
3:20 AM 33.8 °F 27.0 °F 28.4 °F 81% 29.80 in 7.0 mi West 8.1 mph - 0.00 in Snow Light Snow
3:56 AM 34.0 °F 27.2 °F 28.9 °F 82% 29.81 in 8.0 mi West 8.1 mph - 0.00 in Snow Light Snow
4:56 AM 34.0 °F 26.0 °F 28.9 °F 82% 29.81 in 10.0 mi West 10.4 mph - 0.00 in   Overcast
5:29 AM 33.8 °F 25.8 °F 28.4 °F 81% 29.81 in 10.0 mi West 10.4 mph - N/A   Overcast
5:56 AM 33.1 °F 26.9 °F 28.0 °F 82% 29.82 in 10.0 mi West 6.9 mph - N/A   Overcast
6:13 AM 33.8 °F 24.8 °F 28.4 °F 81% 29.82 in 10.0 mi West 12.7 mph - N/A   Overcast
6:56 AM 34.0 °F 25.5 °F 27.0 °F 75% 29.84 in 10.0 mi WNW 11.5 mph - N/A   Overcast
7:10 AM 33.8 °F 24.3 °F 24.8 °F 70% 29.84 in 10.0 mi WNW 13.8 mph - N/A   Mostly Cloudy
7:56 AM 34.0 °F 25.0 °F 25.0 °F 70% 29.87 in 10.0 mi WNW 12.7 mph - N/A   Mostly Cloudy
8:56 AM 35.1 °F 25.2 °F 25.0 °F 67% 29.88 in 10.0 mi WNW 16.1 mph 21.9 mph N/A   Scattered Clouds
9:09 AM 35.6 °F 26.6 °F 24.8 °F 65% 29.87 in 10.0 mi NW 13.8 mph - N/A   Mostly Cloudy
9:56 AM 35.1 °F 26.9 °F 25.0 °F 67% 29.89 in 10.0 mi WNW 11.5 mph 20.7 mph N/A   Overcast
10:56 AM 36.0 °F 27.5 °F 25.0 °F 64% 29.91 in 10.0 mi West 12.7 mph - N/A   Overcast
11:10 AM 37.4 °F 28.5 °F 24.8 °F 60% 29.90 in 10.0 mi West 15.0 mph - N/A   Overcast
11:56 AM 36.0 °F 26.7 °F 25.0 °F 64% 29.91 in 10.0 mi West 15.0 mph 23.0 mph N/A   Overcast
12:28 PM 35.6 °F 26.6 °F 24.8 °F 65% 29.91 in 10.0 mi West 13.8 mph 23.0 mph N/A   Overcast
12:56 PM 35.1 °F 24.1 °F 26.1 °F 70% 29.92 in 10.0 mi West 19.6 mph 27.6 mph N/A   Overcast
1:56 PM 36.0 °F 26.0 °F 26.1 °F 67% 29.93 in 10.0 mi West 17.3 mph 24.2 mph N/A   Overcast
2:43 PM 35.6 °F 25.2 °F 24.8 °F 65% 29.93 in 10.0 mi West 18.4 mph 24.2 mph N/A   Overcast
2:54 PM 35.6 °F 25.2 °F 24.8 °F 65% 29.92 in 10.0 mi WNW 18.4 mph - N/A   Overcast
2:56 PM 36.0 °F 27.1 °F 25.0 °F 64% 29.93 in 10.0 mi West 13.8 mph - N/A   Overcast
3:17 PM 37.4 °F 29.3 °F 24.8 °F 60% 29.92 in 10.0 mi West 12.7 mph - N/A   Overcast
3:56 PM 37.9 °F 29.2 °F 25.0 °F 60% 29.92 in 10.0 mi West 15.0 mph - N/A   Overcast
4:56 PM 37.9 °F 30.5 °F 25.0 °F 60% 29.92 in 10.0 mi West 11.5 mph - N/A   Overcast
5:56 PM 39.0 °F 32.3 °F 25.0 °F 57% 29.93 in 10.0 mi West 10.4 mph - N/A   Overcast
6:56 PM 39.0 °F 32.3 °F 25.0 °F 57% 29.94 in 10.0 mi WNW 10.4 mph - N/A   Mostly Cloudy
7:56 PM 36.0 °F 33.3 °F 27.0 °F 70% 29.94 in 10.0 mi North 3.5 mph - N/A   Mostly Cloudy
8:56 PM 33.1 °F - 26.1 °F 75% 29.95 in 10.0 mi Calm Calm - N/A   Mostly Cloudy
9:56 PM 32.0 °F - 27.0 °F 82% 29.98 in 10.0 mi Calm Calm - N/A   Mostly Cloudy
10:56 PM 32.0 °F - 28.0 °F 85% 29.99 in 10.0 mi Calm Calm - N/A   Overcast
11:56 PM 32.0 °F - 28.9 °F 88% 30.01 in 10.0 mi Calm Calm - N/A   Overcast